User: anonymous   Login
Location: Catstown
(52.4386°N, 7.2633°W)
Time: 19:55:44
(UTC+00:00)
Language:

Cosmos 2251 Rocket - Orbit

View from above orbital plane
View from above orbital plane
View from above satellite
View from above satellite

Ground track
Ground track

The orbit data is extracted from the following two-line orbital elements,

1 22676U 93036B   21169.58706850 -.00000021  00000-0  18701-5 0  9998
2 22676  74.0431  27.0759 0018052  54.7226 305.5611 14.34042718464689
Epoch (UTC): 18 June 2021 14:05:22
Eccentricity: 0.0018052
inclination: 74.0431°
perigee height: 765 km
apogee height: 791 km
right ascension of ascending node: 27.0759°
argument of perigee: 54.7226°
revolutions per day: 14.34042718
mean anomaly at epoch: 305.5611°
orbit number at epoch: 46468

The dashed part of the orbit path shows where the satellite is in the earth's shadow,  

DLR